Flag for U.S.A. Weather past 2 weeks in Salt Lake City, Utah, U.S.A.

Now
37 °F

Broken clouds.


Feels Like: 30 °F
Forecast: 24 / 37 °F
Wind: 10 mph from North

Location: Salt Lake City International Airport

Current Time: Mar 3, 2015 at 4:34:58 PM

Latest Report: Mar 3, 2015 at 3:53 PM


Visibility: 10 mi

Pressure: 29.89 "Hg

Humidity: 62%

Dew point: 25 °F

Location of Salt Lake CityLocation

Historic Weather in Salt Lake City — Graph

°F

Salt Lake City temperature yesterday

Maximum temperature yesterday: 41 °F (at 12:53 PM)
Minimum temperature yesterday: 32 °F (at 7:53 PM)
Average temperature yesterday: 37 °F

Past Weeks' High & Low Weather Summary

 TemperatureHumidityPressure
High61 °F (Feb 19, 2:53 PM)100% (Mar 2, 7:53 PM)30.33 "Hg (Mar 2, 7:53 PM)
Low23 °F (Feb 23, 5:53 AM)18% (Feb 18, 2:53 PM)29.59 "Hg (Mar 2, 3:53 PM)
Average38 °F58%30.01 "Hg
* Reported Feb 16 2:53 PM — Mar 3 2:53 PM, Salt Lake City, Weather by CustomWeather, © 2015

Note: Actual official high and low records may vary slightly from our data, if they occured in-between our weather recording intervals... More about our weather records

Advertising

Salt Lake City weather history for previous 24 hours

 ConditionsComfort  
Time TempWeatherWind HumidityBarometerVisibility
2:53 PM
Tue, Mar 3
36 °FBroken clouds.12 mph64%29.91 "Hg10 mi
1:53 PM36 °FPartly sunny.13 mph64%29.90 "Hg10 mi
12:53 PM35 °FScattered clouds.14 mph67%29.90 "Hg10 mi
12:02 PM33 °FLight snow. Mostly cloudy.5 mph88%29.88 "Hg8 mi
11:53 AM33 °FLight snow. Partly sunny.No wind88%29.90 "Hg10 mi
11:01 AM31 °FLight snow. Ice fog.6 mph92%29.87 "Hg1 mi
9:53 AM31 °FLight snow. Ice fog.14 mph96%29.88 "Hg0 mi
9:04 AM32 °FLight snow. Ice fog.18 mph92%29.83 "Hg1 mi
8:53 AM32 °FLight snow. Ice fog.14 mph96%29.85 "Hg0 mi
7:53 AM36 °FLight rain. Mostly cloudy.3 mph85%29.79 "Hg10 mi
6:53 AM36 °FMostly cloudy.3 mph82%29.78 "Hg10 mi
5:53 AM36 °FMostly cloudy.6 mph82%29.76 "Hg10 mi
4:53 AM35 °FLight rain. Mostly cloudy.3 mph88%29.79 "Hg10 mi
3:53 AM35 °FMostly cloudy.No wind88%29.79 "Hg10 mi
2:53 AM34 °FMostly cloudy.8 mph92%29.76 "Hg10 mi
1:53 AM34 °FPassing clouds.8 mph92%29.76 "Hg10 mi
12:53 AM33 °FPassing clouds.8 mph92%29.76 "Hg10 mi
11:53 PM
Mon, Mar 2
34 °FPassing clouds.3 mph97%29.80 "Hg10 mi
10:53 PM35 °FMostly cloudy.3 mph92%29.79 "Hg10 mi
9:53 PM35 °FOvercast.No wind92%29.78 "Hg10 mi
9:02 PM34 °FLight rain. Overcast.9 mph97%29.75 "Hg10 mi
8:53 PM34 °FLight rain. Mostly cloudy.8 mph97%29.72 "Hg10 mi
8:02 PM33 °FLight snow. Fog.8 mph96%29.72 "Hg1 mi
7:53 PM32 °FLight snow. Ice fog.8 mph100%29.70 "Hg1 mi
6:53 PM34 °FLight rain. Fog.13 mph97%29.63 "Hg2 mi
6:02 PM35 °FLight snow. Fog.6 mph92%29.65 "Hg1 mi
5:53 PM36 °FLight rain. Fog.3 mph92%29.64 "Hg2 mi
4:53 PM38 °FRain. Fog.10 mph90%29.62 "Hg2 mi
Weather by CustomWeather, © 2015

See weather overviewHow to use our weather pages